カタログに戻る

STARLINK-1300

運用中通信VLEO
NORAD 45374·PAYLOAD·🇺🇸 United States

打ち上げ Mar 18, 2020 から Cape Canaveral Space Force Station

Loading…

次のパス (今後24時間)

TLE

最新Source: CelesTrak SupGP

元期: Sep 15, 2026, 01:52 UTC

1 45374C 20019Q   26258.07826389  .00056139  00000+0  11958-2 0  2588
2 45374  53.1543 357.7043 0002372  30.0723 203.3838 15.44319145    19

AllMySatでSTARLINK-1300をリアルタイム追跡

Download on the App Store